Location: Mount Kobau Star Party
(49.1167°N, 119.7333°W)
Time: 06:19:03
(UTC-07:00)

ACS3 Solar Sail - Visible Passes

Search period start: 18 June 2024 00:00
Search period end: 28 June 2024 00:00
Orbit: 992 x 1024 km, 97.4° (Epoch: 17 June)

Date Brightness Start Highest point End Pass type
(mag) Time Alt. Az. Time Alt. Az. Time Alt. Az.
18 Jun 4.9 22:28:41 10° SSE 22:34:55 82° WSW 22:41:11 10° NNW visible
19 Jun 7.0 00:16:30 10° WSW 00:20:01 15° W 00:23:32 10° NW visible
19 Jun 5.6 23:03:30 10° S 23:09:29 47° W 23:15:29 10° NNW visible
20 Jun 5.1 21:53:36 10° SSE 21:59:42 60° ENE 22:05:48 10° N visible
20 Jun 6.4 23:39:04 10° SW 23:44:14 27° W 23:49:25 10° NNW visible
21 Jun 4.9 22:27:50 10° S 22:34:04 80° WSW 22:40:20 10° NNW visible
22 Jun 7.0 00:15:50 10° WSW 00:19:12 15° W 00:22:34 10° NW visible
22 Jun 5.6 23:02:42 10° SSW 23:08:38 46° W 23:14:36 10° NNW visible
23 Jun 5.0 21:52:43 10° SSE 21:58:50 62° ENE 22:04:58 10° N visible
23 Jun 6.5 23:38:18 10° SW 23:43:24 26° W 23:48:32 10° NNW visible
24 Jun 5.0 22:27:00 10° S 22:33:13 78° WSW 22:39:28 10° NNW visible
25 Jun 7.0 00:15:10 10° WSW 00:18:22 14° W 00:21:36 10° NW visible
25 Jun 5.7 23:01:53 10° SSW 23:07:47 45° W 23:13:43 10° NNW visible
26 Jun 5.0 21:51:51 10° SSE 21:57:58 64° ENE 22:04:06 10° N visible
26 Jun 6.5 23:37:32 10° SW 23:42:34 25° W 23:47:37 10° NW visible
27 Jun 5.0 22:26:08 10° S 22:32:21 76° WSW 22:38:36 10° NNW visible
